NI4CE-14 Weather Reports


Display with metric or nautical units.
time (UTC)temp
F
wind
direction
speed
MPH
gust
MPH
rain 1hr
in
rain 24hr
in
rain mn
in
humidity
%
barometer
mb
20260903130858 86 246 0.0 2.0 0.00 0.00 0.00 100 1013.0
20260903130358 86 147 0.0 2.0 0.00 0.00 0.00 100 1013.1
20260903130120 86 206 0.0 2.0 0.00 0.00 0.00 100 1013.0
20260903125858 86 206 0.0 2.0 0.00 0.00 0.00 100 1013.0
20260903125657 86 198 0.0 0.0 0.00 0.00 0.00 100 1013.0
20260903125358 86 198 0.0 0.0 0.00 0.00 0.00 100 1013.0
20260903124858 86 198 0.0 0.0 0.00 0.00 0.00 100 1013.0
20260903124654 85 198 0.0 1.0 0.00 0.00 0.00 100 1013.0
20260903124358 85 198 0.0 1.0 0.00 0.00 0.00 100 1013.0
20260903123858 85 198 0.0 0.0 0.00 0.00 0.00 100 1012.8
20260903123358 85 198 0.0 3.0 0.00 0.00 0.00 100 1012.8
20260903123111 85 135 0.0 4.0 0.00 0.00 0.00 100 1012.8
20260903122858 85 135 0.0 4.0 0.00 0.00 0.00 100 1012.8
20260903122753 85 178 0.0 3.0 0.00 0.00 0.00 100 1012.8
20260903122358 85 178 0.0 3.0 0.00 0.00 0.00 100 1012.8
20260903122257 85 147 0.0 3.0 0.00 0.00 0.00 100 1012.8
20260903121858 85 147 0.0 3.0 0.00 0.00 0.00 100 1012.8
20260903121358 85 139 0.0 4.0 0.00 0.00 0.00 100 1012.7
20260903121138 85 208 1.0 4.0 0.00 0.00 0.00 100 1012.7
20260903120858 85 208 1.0 4.0 0.00 0.00 0.00 100 1012.7
20260903120637 85 142 0.0 0.0 0.00 0.00 0.00 100 1012.6
20260903120358 85 142 0.0 0.0 0.00 0.00 0.00 100 1012.6
20260903115858 85 142 0.0 0.0 0.00 0.00 0.00 100 1012.5
20260903115626 85 142 0.0 0.0 0.00 0.00 0.00 100 1012.4
20260903115358 85 142 0.0 0.0 0.00 0.00 0.00 100 1012.4
20260903115140 85 172 0.0 3.0 0.00 0.00 0.00 100 1012.3
20260903114858 85 172 0.0 3.0 0.00 0.00 0.00 100 1012.3
20260903114625 85 146 0.0 3.0 0.00 0.00 0.00 100 1012.3
20260903114358 85 146 0.0 3.0 0.00 0.00 0.00 100 1012.3
20260903114139 85 196 0.0 0.0 0.00 0.00 0.00 100 1012.2
20260903113858 85 196 0.0 0.0 0.00 0.00 0.00 100 1012.2
20260903113358 85 196 0.0 0.0 0.00 0.00 0.00 100 1012.2
20260903113128 85 196 0.0 0.0 0.00 0.00 0.00 100 1010.6
20260903112858 85 196 0.0 0.0 0.00 0.00 0.00 100 1010.6
20260903112358 85 196 0.0 2.0 0.00 0.00 0.00 100 1011.7
20260903112224 85 59 1.0 5.0 0.00 0.00 0.00 100 1011.6
20260903111858 85 59 1.0 5.0 0.00 0.00 0.00 100 1011.6
20260903111358 85 88 0.0 3.0 0.00 0.00 0.00 100 1011.6
20260903111334 85 85 0.0 4.0 0.00 0.00 0.00 100 1011.7
20260903110858 85 85 0.0 4.0 0.00 0.00 0.00 100 1011.7
20260903110358 85 94 0.0 3.0 0.00 0.00 0.00 100 1011.7
20260903110123 85 104 2.0 4.0 0.00 0.00 0.00 100 1011.6
20260903105858 85 104 2.0 4.0 0.00 0.00 0.00 100 1011.6
20260903105637 85 219 1.0 1.0 0.00 0.00 0.00 100 1011.5
20260903105358 85 219 1.0 1.0 0.00 0.00 0.00 100 1011.5
20260903104858 85 219 0.0 0.0 0.00 0.00 0.00 100 1011.6
20260903104710 85 219 0.0 3.0 0.00 0.00 0.00 100 1011.6
20260903104358 85 219 0.0 3.0 0.00 0.00 0.00 100 1011.6
20260903103858 85 73 0.0 4.0 0.00 0.00 0.00 100 1011.6
20260903103358 85 205 2.0 5.0 0.00 0.00 0.00 100 1011.4
20260903102858 85 106 0.0 4.0 0.00 0.00 0.00 100 1011.4
20260903102358 85 151 0.0 1.0 0.00 0.00 0.00 100 1011.5
20260903101858 85 151 0.0 3.0 0.00 0.00 0.00 100 1011.5
20260903101358 85 172 0.0 2.0 0.00 0.00 0.00 100 1011.5
20260903101245 85 146 0.0 2.0 0.00 0.00 0.00 100 1011.5
20260903100858 85 146 0.0 2.0 0.00 0.00 0.00 100 1011.5
20260903100702 85 68 0.0 5.0 0.00 0.00 0.00 100 1011.4
20260903100358 85 68 0.0 5.0 0.00 0.00 0.00 100 1011.4
20260903100156 85 106 0.0 0.0 0.00 0.00 0.00 100 1011.3
20260903095858 85 106 0.0 0.0 0.00 0.00 0.00 100 1011.3
20260903095639 85 106 0.0 0.0 0.00 0.00 0.00 100 1011.2
20260903095451 85 164 0.0 3.0 0.00 0.00 0.00 100 1011.1
20260903095358 85 106 0.0 0.0 0.00 0.00 0.00 100 1011.2
20260903094858 85 106 0.0 3.0 0.00 0.00 0.00 100 1011.2
20260903094604 85 164 0.0 1.0 0.00 0.00 0.00 100 1011.1
20260903094358 85 164 0.0 1.0 0.00 0.00 0.00 100 1011.1
20260903094231 85 164 0.0 3.0 0.00 0.00 0.00 100 1011.1
20260903093858 85 164 0.0 3.0 0.00 0.00 0.00 100 1011.1
20260903093710 85 21 0.0 5.0 0.00 0.00 0.00 100 1011.1
20260903093702 85 157 0.0 2.0 0.00 0.00 0.00 100 1011.5
20260903093654 85 78 1.0 5.0 0.00 0.00 0.00 100 1011.7
20260903093358 85 21 0.0 5.0 0.00 0.00 0.00 100 1011.1
20260903093201 85 99 0.0 3.0 0.00 0.00 0.00 100 1011.1
20260903093130 85 109 4.0 5.0 0.00 0.00 0.00 100 1011.2
20260903092858 85 109 4.0 5.0 0.00 0.00 0.00 100 1011.2
20260903092358 85 99 0.0 3.0 0.00 0.00 0.00 100 1011.1
20260903092124 85 87 0.0 2.0 0.00 0.00 0.00 100 1011.1
20260903091858 85 87 0.0 2.0 0.00 0.00 0.00 100 1011.1
20260903091710 85 78 0.0 3.0 0.00 0.00 0.00 100 1011.1
20260903091358 85 78 0.0 3.0 0.00 0.00 0.00 100 1011.1
20260903090858 85 102 0.0 2.0 0.00 0.00 0.00 100 1011.1
20260903090639 85 87 0.0 0.0 0.00 0.00 0.00 100 1011.1
20260903090358 85 87 0.0 0.0 0.00 0.00 0.00 100 1011.1
20260903090203 85 87 0.0 1.0 0.00 0.00 0.00 100 1011.1
20260903085858 85 87 0.0 1.0 0.00 0.00 0.00 100 1011.1
20260903085626 85 158 0.0 0.0 0.00 0.00 0.00 100 1011.1
20260903085358 85 158 0.0 0.0 0.00 0.00 0.00 100 1011.1
20260903084858 85 158 0.0 0.0 0.00 0.00 0.00 100 1011.0
20260903084620 85 133 0.0 4.0 0.00 0.00 0.00 100 1010.9
20260903084358 85 133 0.0 4.0 0.00 0.00 0.00 100 1010.9
20260903084155 85 133 1.0 4.0 0.00 0.00 0.00 100 1011.0
20260903083858 85 133 1.0 4.0 0.00 0.00 0.00 100 1011.0
20260903083633 85 132 0.0 4.0 0.00 0.00 0.00 100 1011.0
20260903083358 85 132 0.0 4.0 0.00 0.00 0.00 100 1011.0
20260903082858 85 129 2.0 2.0 0.00 0.00 0.00 100 1011.1
20260903082358 85 137 0.0 3.0 0.00 0.00 0.00 100 1011.0
20260903081858 85 78 0.0 2.0 0.00 0.00 0.00 100 1011.0
20260903081358 85 146 0.0 0.0 0.00 0.00 0.00 100 1011.1
20260903081144 85 146 0.0 1.0 0.00 0.00 0.00 100 1011.1
20260903080858 85 146 0.0 1.0 0.00 0.00 0.00 100 1011.1
20260903080358 85 98 0.0 2.0 0.00 0.00 0.00 100 1011.1
20260903080124 85 68 0.0 4.0 0.00 0.00 0.00 100 1011.1
20260903075858 85 68 0.0 4.0 0.00 0.00 0.00 100 1011.1
20260903075658 85 196 0.0 1.0 0.00 0.00 0.00 100 1011.2
20260903075358 85 196 0.0 1.0 0.00 0.00 0.00 100 1011.2
20260903075132 85 98 0.0 5.0 0.00 0.00 0.00 100 1011.2
20260903074858 85 98 0.0 5.0 0.00 0.00 0.00 100 1011.2
20260903074616 85 74 0.0 3.0 0.00 0.00 0.00 100 1011.3
20260903074358 85 74 0.0 3.0 0.00 0.00 0.00 100 1011.3
20260903074149 85 113 0.0 0.0 0.00 0.00 0.00 100 1011.3
20260903073858 85 113 0.0 0.0 0.00 0.00 0.00 100 1011.3
20260903073358 85 113 0.0 2.0 0.00 0.00 0.00 100 1011.3
20260903073202 85 115 0.0 1.0 0.00 0.00 0.00 100 1011.4
20260903072858 85 115 0.0 1.0 0.00 0.00 0.00 100 1011.4
20260903072358 85 115 1.0 1.0 0.00 0.00 0.00 100 1011.5
20260903071858 85 188 0.0 1.0 0.00 0.00 0.00 100 1011.4
20260903071358 85 160 0.0 0.0 0.00 0.00 0.00 100 1011.5
20260903070858 85 160 0.0 1.0 0.00 0.00 0.00 100 1011.6
20260903070701 85 112 0.0 0.0 0.00 0.00 0.00 100 1011.5
20260903070358 85 112 0.0 0.0 0.00 0.00 0.00 100 1011.5
20260903065858 85 112 0.0 0.0 0.00 0.00 0.00 100 1011.6
20260903065659 85 112 0.0 0.0 0.00 0.00 0.00 100 1011.6
20260903065358 85 112 0.0 0.0 0.00 0.00 0.00 100 1011.6
20260903065136 85 112 0.0 1.0 0.00 0.00 0.00 100 1011.6
20260903064858 85 112 0.0 1.0 0.00 0.00 0.00 100 1011.6
20260903064358 85 108 0.0 3.0 0.00 0.00 0.00 100 1011.6
20260903063858 85 57 0.0 2.0 0.00 0.00 0.00 100 1011.5
20260903063605 85 157 0.0 2.0 0.00 0.00 0.00 100 1011.5
20260903063358 85 157 0.0 2.0 0.00 0.00 0.00 100 1011.5
20260903062858 85 105 0.0 3.0 0.00 0.00 0.00 100 1011.5
20260903062358 85 112 3.0 4.0 0.00 0.00 0.00 100 1011.5
20260903061858 85 84 3.0 5.0 0.00 0.00 0.00 100 1011.5
20260903061704 85 104 1.0 5.0 0.00 0.00 0.00 100 1011.5
20260903061358 85 104 1.0 5.0 0.00 0.00 0.00 100 1011.5
20260903061131 85 78 1.0 5.0 0.00 0.00 0.00 100 1011.7
20260903060858 85 78 1.0 5.0 0.00 0.00 0.00 100 1011.7
20260903060628 85 57 0.0 0.0 0.00 0.00 0.00 100 1011.7
20260903060358 85 57 0.0 0.0 0.00 0.00 0.00 100 1011.7
20260903060144 86 57 0.0 1.0 0.00 0.00 0.00 100 1011.8
20260903055858 86 57 0.0 1.0 0.00 0.00 0.00 100 1011.8
20260903055358 85 92 0.0 2.0 0.00 0.00 0.00 100 1011.9
20260903055056 85 154 0.0 0.0 0.00 0.00 0.00 100 1012.0
20260903054858 85 154 0.0 0.0 0.00 0.00 0.00 100 1012.0
20260903054742 85 127 0.0 0.0 0.00 0.00 0.00 100 1013.8
20260903054739 84 127 0.0 0.0 0.00 0.00 0.00 100 1013.6
20260903054705 85 154 0.0 5.0 0.00 0.00 0.00 100 1011.9
20260903054358 85 154 0.0 5.0 0.00 0.00 0.00 100 1011.9
20260903053858 85 154 3.0 5.0 0.00 0.00 0.00 100 1012.1
20260903053358 86 174 0.0 3.0 0.00 0.00 0.00 100 1012.1
20260903052858 86 47 0.0 1.0 0.00 0.00 0.00 100 1012.2
20260903052358 86 91 0.0 1.0 0.00 0.00 0.00 100 1012.4
20260903052152 86 60 0.0 3.0 0.00 0.00 0.00 100 1012.4
20260903051858 86 60 0.0 3.0 0.00 0.00 0.00 100 1012.4
20260903051358 86 87 0.0 0.0 0.00 0.00 0.00 100 1012.5
20260903050858 86 87 0.0 0.0 0.00 0.00 0.00 100 1012.5
20260903050358 86 87 0.0 3.0 0.00 0.00 0.00 100 1012.5
20260903050301 86 237 0.0 0.0 0.00 0.00 0.00 100 1012.5
20260903045858 86 237 0.0 0.0 0.00 0.00 0.00 100 1012.5
20260903045822 86 237 0.0 6.0 0.00 0.00 0.00 100 1012.6
20260903045358 86 237 0.0 6.0 0.00 0.00 0.00 100 1012.6
20260903044858 86 116 0.0 0.0 0.00 0.00 0.00 100 1012.6
20260903044358 86 116 0.0 2.0 0.00 0.00 0.00 100 1012.6
20260903043858 86 132 0.0 3.0 0.00 0.00 0.00 100 1012.6
20260903043713 86 108 0.0 0.0 0.00 0.00 0.00 100 1012.6
20260903043358 86 108 0.0 0.0 0.00 0.00 0.00 100 1012.6
20260903042858 86 108 0.0 4.0 0.00 0.00 0.00 100 1012.6
20260903042359 86 132 0.0 0.0 0.00 0.00 0.00 100 1012.7
20260903042132 86 132 0.0 1.0 0.00 0.00 0.00 100 1012.7
20260903041859 86 132 0.0 1.0 0.00 0.00 0.00 100 1012.7
20260903041626 86 108 0.0 0.0 0.00 0.00 0.00 100 1012.8
20260903041359 86 108 0.0 0.0 0.00 0.00 0.00 100 1012.8
20260903041237 85 116 0.0 3.0 0.00 0.00 0.00 100 1012.8
20260903040859 85 116 0.0 3.0 0.00 0.00 0.00 100 1012.8
20260903040714 86 140 0.0 1.0 0.00 0.00 0.00 100 1012.7
20260903040359 86 140 0.0 1.0 0.00 0.00 0.00 100 1012.7
20260903035859 86 122 0.0 1.0 0.00 0.00 0.00 100 1012.7
20260903035709 86 81 0.0 1.0 0.00 0.00 0.00 100 1012.7
20260903035359 86 81 0.0 1.0 0.00 0.00 0.00 100 1012.7
20260903034859 86 118 0.0 1.0 0.00 0.00 0.00 100 1012.7
20260903034709 86 187 1.0 1.0 0.00 0.00 0.00 100 1012.8
20260903034359 86 187 1.0 1.0 0.00 0.00 0.00 100 1012.8
20260903034220 86 81 0.0 0.0 0.00 0.00 0.00 100 1012.8
20260903033859 86 81 0.0 0.0 0.00 0.00 0.00 100 1012.8
20260903033359 86 81 0.0 1.0 0.00 0.00 0.00 100 1012.9
20260903033209 86 125 0.0 2.0 0.00 0.00 0.00 100 1012.9
20260903032859 86 125 0.0 2.0 0.00 0.00 0.00 100 1012.9
20260903032715 86 172 0.0 3.0 0.00 0.00 0.00 100 1012.9
20260903032359 86 172 0.0 3.0 0.00 0.00 0.00 100 1012.9
20260903031859 86 143 0.0 1.0 0.00 0.00 0.00 100 1013.0
20260903031648 86 109 0.0 2.0 0.00 0.00 0.00 100 1013.1
20260903031359 86 109 0.0 2.0 0.00 0.00 0.00 100 1013.1
20260903031216 86 113 0.0 0.0 0.00 0.00 0.00 100 1013.1
20260903030859 86 113 0.0 0.0 0.00 0.00 0.00 100 1013.1
20260903030648 86 113 0.0 0.0 0.00 0.00 0.00 100 1013.1
20260903030359 86 113 0.0 0.0 0.00 0.00 0.00 100 1013.1
20260903030308 86 113 0.0 0.0 0.00 0.00 0.00 100 1013.1
20260903025859 86 113 0.0 0.0 0.00 0.00 0.00 100 1013.1
20260903025713 86 113 0.0 2.0 0.00 0.00 0.00 100 1013.1
20260903025359 86 113 0.0 2.0 0.00 0.00 0.00 100 1013.1
20260903025208 86 53 0.0 0.0 0.00 0.00 0.00 100 1013.1
20260903024859 86 53 0.0 0.0 0.00 0.00 0.00 100 1013.1
20260903024603 86 53 0.0 0.0 0.00 0.00 0.00 100 1013.1
20260903024359 86 53 0.0 0.0 0.00 0.00 0.00 100 1013.1
20260903023859 86 53 0.0 0.0 0.00 0.00 0.00 100 1013.2
20260903023359 86 53 0.0 0.0 0.00 0.00 0.00 100 1013.1
20260903022859 86 53 0.0 1.0 0.00 0.00 0.00 100 1013.2
20260903022359 86 43 0.0 0.0 0.00 0.00 0.00 100 1013.1
20260903022125 86 43 0.0 2.0 0.00 0.00 0.00 100 1013.1
20260903021859 86 43 0.0 2.0 0.00 0.00 0.00 100 1013.1
20260903021636 86 113 1.0 3.0 0.00 0.00 0.00 100 1013.1
20260903021359 86 113 1.0 3.0 0.00 0.00 0.00 100 1013.1
20260903020859 86 42 0.0 0.0 0.00 0.00 0.00 100 1013.1
20260903020638 86 42 0.0 0.0 0.00 0.00 0.00 100 1013.1
20260903020359 86 42 0.0 0.0 0.00 0.00 0.00 100 1013.1
20260903015859 86 42 0.0 0.0 0.00 0.00 0.00 100 1013.1
20260903015657 86 42 0.0 0.0 0.00 0.00 0.00 100 1013.0
20260903015359 86 42 0.0 0.0 0.00 0.00 0.00 100 1013.0
20260903015132 86 42 0.0 0.0 0.00 0.00 0.00 100 1013.1
20260903014859 86 42 0.0 0.0 0.00 0.00 0.00 100 1013.1
20260903014714 86 42 0.0 0.0 0.00 0.00 0.00 100 1013.1
20260903014359 86 42 0.0 0.0 0.00 0.00 0.00 100 1013.1
20260903013859 86 42 0.0 0.0 0.00 0.00 0.00 100 1013.0
20260903013359 86 42 0.0 0.0 0.00 0.00 0.00 100 1013.1
20260903012859 86 42 0.0 0.0 0.00 0.00 0.00 100 1013.1
20260903012735 86 42 0.0 0.0 0.00 0.00 0.00 100 1013.1
20260903012359 86 42 0.0 0.0 0.00 0.00 0.00 100 1013.1
20260903011859 86 42 0.0 0.0 0.00 0.00 0.00 100 1013.0
20260903011359 86 42 0.0 2.0 0.00 0.00 0.00 100 1012.9
20260903010859 86 25 0.0 3.0 0.00 0.00 0.00 100 1012.6
20260903010711 86 57 2.0 2.0 0.00 0.00 0.00 100 1010.8
20260903010359 86 57 2.0 2.0 0.00 0.00 0.00 100 1010.8
20260903005859 86 139 0.0 0.0 0.00 0.00 0.00 100 1010.9
20260903005802 87 139 0.0 3.0 0.00 0.00 0.00 100 1010.8
20260903005359 87 139 0.0 3.0 0.00 0.00 0.00 100 1010.8
20260903004859 87 149 0.0 3.0 0.00 0.00 0.00 100 1010.7
20260903004720 87 50 0.0 1.0 0.00 0.00 0.00 100 1010.7
20260903004359 87 50 0.0 1.0 0.00 0.00 0.00 100 1010.7
20260903003859 87 28 0.0 0.0 0.00 0.00 0.00 100 1011.1
20260903003359 87 28 0.0 0.0 0.00 0.00 0.00 100 1011.4
20260903003138 87 28 0.0 0.0 0.00 0.00 0.00 100 1011.1
20260903002859 87 28 0.0 0.0 0.00 0.00 0.00 100 1011.1
20260903002713 87 28 0.0 0.0 0.00 0.00 0.00 100 1012.3
20260903002359 87 28 0.0 0.0 0.00 0.00 0.00 100 1012.3
20260903001859 87 28 0.0 0.0 0.00 0.00 0.00 100 1012.2
20260903001359 87 28 0.0 3.0 0.00 0.00 0.00 100 1012.1
20260903001231 87 220 0.0 0.0 0.00 0.00 0.00 100 1012.2
20260903000859 87 220 0.0 0.0 0.00 0.00 0.00 100 1012.2
20260903000359 87 220 0.0 0.0 0.00 0.00 0.00 100 1012.3
20260903000200 87 220 0.0 0.0 0.00 0.00 0.00 100 1012.4
20260902235859 87 220 0.0 0.0 0.00 0.00 0.00 100 1012.4
20260902235711 87 220 0.0 3.0 0.00 0.00 0.00 100 1012.6
20260902235359 87 220 0.0 3.0 0.00 0.00 0.00 100 1012.6
20260902234859 87 163 0.0 2.0 0.00 0.00 0.00 100 1012.5
20260902234359 87 98 0.0 5.0 0.00 0.00 0.00 100 1012.2
20260902233859 88 118 2.0 6.0 0.00 0.00 0.00 100 1012.2
20260902233359 88 95 4.0 7.0 0.00 0.00 0.00 100 1012.3
20260902232859 88 91 3.0 3.0 0.00 0.00 0.00 100 1012.3
20260902232652 88 147 1.0 6.0 0.00 0.00 0.00 100 1012.2
20260902232359 88 147 1.0 6.0 0.00 0.00 0.00 100 1012.2
20260902231859 89 164 0.0 3.0 0.00 0.00 0.00 100 1012.3
20260902231705 89 199 1.0 6.0 0.00 0.00 0.00 100 1012.2
20260902231359 89 199 1.0 6.0 0.00 0.00 0.00 100 1012.2
20260902230859 90 203 1.0 6.0 0.00 0.00 0.00 100 1012.0
20260902230627 90 106 0.0 6.0 0.00 0.00 0.00 100 1012.2
20260902230359 90 106 0.0 6.0 0.00 0.00 0.00 100 1012.2
20260902225859 91 170 0.0 8.0 0.00 0.00 0.00 100 1011.1
20260902225633 91 153 5.0 7.0 0.00 0.00 0.00 100 1012.3
20260902225359 91 153 5.0 7.0 0.00 0.00 0.00 100 1012.3
20260902225132 91 59 0.0 3.0 0.00 0.00 0.00 100 1012.2
20260902224859 91 59 0.0 3.0 0.00 0.00 0.00 100 1012.2
20260902224359 91 5 1.0 3.0 0.00 0.00 0.00 100 1011.4
20260902223859 91 40 2.0 4.0 0.00 0.00 0.00 100 1012.0
20260902223714 91 60 4.0 5.0 0.00 0.00 0.00 100 1011.8
20260902223359 91 60 4.0 5.0 0.00 0.00 0.00 100 1011.8
20260902223216 91 25 1.0 7.0 0.00 0.00 0.00 100 1011.8
20260902222859 91 25 1.0 7.0 0.00 0.00 0.00 100 1011.8
20260902222646 90 54 5.0 7.0 0.00 0.00 0.00 100 1011.8
20260902222359 90 54 5.0 7.0 0.00 0.00 0.00 100 1011.8
20260902221859 90 36 3.0 10.0 0.00 0.00 0.00 100 1011.5
20260902221359 90 139 1.0 6.0 0.00 0.00 0.00 100 1011.4
20260902220859 90 42 4.0 7.0 0.00 0.00 0.00 100 1011.5
20260902220648 90 21 4.0 5.0 0.00 0.00 0.00 100 1011.5
20260902220359 90 21 4.0 5.0 0.00 0.00 0.00 100 1011.5
20260902220208 90 358 2.0 9.0 0.00 0.00 0.00 100 1011.3
20260902215859 90 358 2.0 9.0 0.00 0.00 0.00 100 1011.3
20260902215700 90 47 6.0 10.0 0.00 0.00 0.00 100 1011.4
20260902215359 90 47 6.0 10.0 0.00 0.00 0.00 100 1011.4
20260902214859 90 47 2.0 6.0 0.00 0.00 0.00 100 1011.5
20260902214659 89 35 0.0 4.0 0.00 0.00 0.00 100 1011.7
20260902214359 89 35 0.0 4.0 0.00 0.00 0.00 100 1011.7
20260902214205 89 52 2.0 6.0 0.00 0.00 0.00 100 1011.7
20260902213859 89 52 2.0 6.0 0.00 0.00 0.00 100 1011.7
20260902213359 89 157 2.0 8.0 0.00 0.00 0.00 100 1011.6
20260902212859 89 30 4.0 9.0 0.00 0.00 0.00 100 1011.5
20260902212359 89 18 5.0 12.0 0.00 0.00 0.00 100 1011.4
20260902212054 90 22 4.0 9.0 0.00 0.00 0.00 100 1011.3
20260902211859 90 22 4.0 9.0 0.00 0.00 0.00 100 1011.3
20260902211359 90 35 2.0 9.0 0.00 0.00 0.00 100 1011.6
20260902210859 90 18 2.0 10.0 0.00 0.00 0.00 100 1011.7
20260902210359 90 26 9.0 9.0 0.00 0.00 0.00 100 1011.8
20260902210155 90 23 6.0 10.0 0.00 0.00 0.00 100 1011.6
20260902205859 90 23 6.0 10.0 0.00 0.00 0.00 100 1011.6
20260902205715 91 67 5.0 12.0 0.00 0.00 0.00 100 1011.6
20260902205359 91 67 5.0 12.0 0.00 0.00 0.00 100 1011.6
20260902204859 91 12 6.0 12.0 0.00 0.00 0.00 100 1011.6
20260902204359 91 21 6.0 12.0 0.00 0.00 0.00 100 1011.4
20260902204246 92 16 4.0 14.0 0.00 0.00 0.00 100 1011.5
20260902203859 92 16 4.0 14.0 0.00 0.00 0.00 100 1011.5
20260902203659 92 330 11.0 15.0 0.00 0.00 0.00 100 1011.7
20260902203359 92 330 11.0 15.0 0.00 0.00 0.00 100 1011.7
20260902203122 92 2 9.0 17.0 0.00 0.00 0.00 100 1011.5
20260902202859 92 2 9.0 17.0 0.00 0.00 0.00 100 1011.5
20260902202359 93 8 11.0 15.0 0.00 0.00 0.00 100 1011.6
20260902201859 93 14 8.0 13.0 0.00 0.00 0.00 100 1011.7
20260902201629 92 7 7.0 13.0 0.00 0.00 0.00 100 1011.8
20260902201359 92 7 7.0 13.0 0.00 0.00 0.00 100 1011.8
20260902200859 93 39 6.0 15.0 0.00 0.00 0.00 100 1011.8
20260902200623 93 12 11.0 16.0 0.00 0.00 0.00 100 1011.6
20260902200359 93 12 11.0 16.0 0.00 0.00 0.00 100 1011.6
20260902200217 92 338 8.0 17.0 0.00 0.00 0.00 100 1011.6
20260902195859 92 338 8.0 17.0 0.00 0.00 0.00 100 1011.6
20260902195622 92 19 10.0 15.0 0.00 0.00 0.00 100 1011.6
20260902195359 92 19 10.0 15.0 0.00 0.00 0.00 100 1011.6
20260902195133 92 336 9.0 16.0 0.00 0.00 0.00 100 1011.7
20260902194859 92 336 9.0 16.0 0.00 0.00 0.00 100 1011.7
20260902194359 92 32 8.0 15.0 0.00 0.00 0.00 100 1011.8
20260902193859 92 358 9.0 17.0 0.00 0.00 0.00 100 1011.9
20260902193359 92 11 7.0 19.0 0.00 0.00 0.00 100 1012.0
20260902192859 92 43 10.0 13.0 0.00 0.00 0.00 100 1012.1
20260902192359 93 59 8.0 16.0 0.00 0.00 0.00 100 1012.1
20260902191859 92 2 9.0 16.0 0.00 0.00 0.00 100 1012.2
20260902191359 93 351 5.0 13.0 0.00 0.00 0.00 100 1012.2
20260902191133 92 336 4.0 14.0 0.00 0.00 0.00 100 1012.3
20260902190859 92 336 4.0 14.0 0.00 0.00 0.00 100 1012.3
20260902190656 92 345 7.0 16.0 0.00 0.00 0.00 100 1012.4
20260902190359 92 345 7.0 16.0 0.00 0.00 0.00 100 1012.4
20260902185859 93 11 12.0 12.0 0.00 0.00 0.00 100 1012.3
20260902185359 93 37 8.0 15.0 0.00 0.00 0.00 100 1012.5
20260902184859 92 323 8.0 14.0 0.00 0.00 0.00 100 1011.2
20260902184717 92 9 2.0 13.0 0.00 0.00 0.00 100 1012.5
20260902184359 92 9 2.0 13.0 0.00 0.00 0.00 100 1012.5
20260902184147 92 23 9.0 16.0 0.00 0.00 0.00 100 1012.7
20260902183859 92 23 9.0 16.0 0.00 0.00 0.00 100 1012.7
20260902183359 93 45 11.0 11.0 0.00 0.00 0.00 100 1012.7
20260902183323 93 29 6.0 13.0 0.00 0.00 0.00 100 1012.8
20260902182859 93 29 6.0 13.0 0.00 0.00 0.00 100 1012.8
20260902182359 92 29 5.0 15.0 0.00 0.00 0.00 100 1012.8
20260902182305 92 14 9.0 12.0 0.00 0.00 0.00 100 1013.0
20260902181859 92 14 9.0 12.0 0.00 0.00 0.00 100 1013.0
20260902181359 92 32 8.0 14.0 0.00 0.00 0.00 100 1012.9
20260902181212 93 9 9.0 13.0 0.00 0.00 0.00 100 1013.0
20260902180859 93 9 9.0 13.0 0.00 0.00 0.00 100 1013.0
20260902180640 93 18 10.0 10.0 0.00 0.00 0.00 100 1013.0
20260902180359 93 18 10.0 10.0 0.00 0.00 0.00 100 1013.0
20260902180306 92 357 6.0 12.0 0.00 0.00 0.00 100 1013.0
20260902175859 92 357 6.0 12.0 0.00 0.00 0.00 100 1013.0
20260902175359 93 45 6.0 12.0 0.00 0.00 0.00 100 1013.1
20260902175157 92 336 8.0 13.0 0.00 0.00 0.00 100 1013.2
20260902174859 92 336 8.0 13.0 0.00 0.00 0.00 100 1013.2
20260902174359 91 29 9.0 15.0 0.00 0.00 0.00 100 1013.2
20260902173859 92 350 10.0 12.0 0.00 0.00 0.00 100 1013.3
20260902173718 92 343 7.0 11.0 0.00 0.00 0.00 100 1013.4
20260902173359 92 343 7.0 11.0 0.00 0.00 0.00 100 1013.4
20260902172859 92 358 7.0 13.0 0.00 0.00 0.00 100 1013.3
20260902172659 92 358 5.0 12.0 0.00 0.00 0.00 100 1013.4
20260902172359 92 358 5.0 12.0 0.00 0.00 0.00 100 1013.4
20260902172357 92 23 6.0 11.0 0.00 0.00 0.00 100 1013.4
20260902171859 92 23 6.0 11.0 0.00 0.00 0.00 100 1013.4
20260902171712 92 57 6.0 11.0 0.00 0.00 0.00 100 1013.4
20260902171359 92 57 6.0 11.0 0.00 0.00 0.00 100 1013.4
20260902171233 92 15 11.0 12.0 0.00 0.00 0.00 100 1013.5
20260902170859 92 15 11.0 12.0 0.00 0.00 0.00 100 1013.5
20260902170359 92 50 5.0 13.0 0.00 0.00 0.00 100 1013.6
20260902170139 92 8 10.0 11.0 0.00 0.00 0.00 100 1013.6
20260902165859 92 8 10.0 11.0 0.00 0.00 0.00 100 1013.6
20260902165359 92 358 3.0 12.0 0.00 0.00 0.00 100 1013.7
20260902164859 92 43 8.0 11.0 0.00 0.00 0.00 100 1013.8
20260902164656 92 54 4.0 10.0 0.00 0.00 0.00 100 1014.0
20260902164359 92 54 4.0 10.0 0.00 0.00 0.00 100 1014.0
20260902163859 91 358 9.0 11.0 0.00 0.00 0.00 100 1013.9
20260902163624 91 9 5.0 11.0 0.00 0.00 0.00 100 1014.0
20260902163359 91 9 5.0 11.0 0.00 0.00 0.00 100 1014.0
20260902162859 91 57 8.0 9.0 0.00 0.00 0.00 100 1014.1
20260902162708 91 61 6.0 12.0 0.00 0.00 0.00 100 1014.2
20260902162359 91 61 6.0 12.0 0.00 0.00 0.00 100 1014.2
20260902161859 91 11 12.0 12.0 0.00 0.00 0.00 100 1014.2
20260902161359 92 348 6.0 11.0 0.00 0.00 0.00 100 1014.4
20260902160900 92 52 2.0 8.0 0.00 0.00 0.00 100 1014.4
20260902160712 93 29 6.0 8.0 0.00 0.00 0.00 100 1014.5
20260902160400 93 29 6.0 8.0 0.00 0.00 0.00 100 1014.5
20260902155900 92 33 7.0 7.0 0.00 0.00 0.00 100 1014.5
20260902155400 92 101 5.0 8.0 0.00 0.00 0.00 100 1014.6
20260902154900 92 111 2.0 6.0 0.00 0.00 0.00 100 1014.7
20260902154400 92 87 1.0 6.0 0.00 0.00 0.00 100 1014.8
20260902153900 92 271 0.0 4.0 0.00 0.00 0.00 100 1014.8
20260902153400 91 18 3.0 5.0 0.00 0.00 0.00 100 1014.8
20260902152859 91 74 1.0 4.0 0.00 0.00 0.00 100 1014.9
20260902152624 92 32 2.0 7.0 0.00 0.00 0.00 100 1014.9
20260902152359 92 32 2.0 7.0 0.00 0.00 0.00 100 1014.9
20260902151900 92 78 2.0 5.0 0.00 0.00 0.00 100 1014.8
20260902151621 93 168 0.0 9.0 0.00 0.00 0.00 100 1014.8
20260902151400 93 168 0.0 9.0 0.00 0.00 0.00 100 1014.8
20260902150900 93 279 2.0 7.0 0.00 0.00 0.00 100 1014.8
20260902150400 93 95 6.0 6.0 0.00 0.00 0.00 100 1014.8
20260902145900 93 70 0.0 7.0 0.00 0.00 0.00 100 1014.7
20260902145801 93 101 3.0 6.0 0.00 0.00 0.00 100 1014.8
20260902145400 93 101 3.0 6.0 0.00 0.00 0.00 100 1014.8
20260902145129 92 115 0.0 6.0 0.00 0.00 0.00 100 1014.7
20260902144900 92 115 0.0 6.0 0.00 0.00 0.00 100 1014.7
20260902144400 92 39 2.0 6.0 0.00 0.00 0.00 100 1014.6
20260902143900 91 61 3.0 9.0 0.00 0.00 0.00 100 1014.6
20260902143400 90 9 0.0 7.0 0.00 0.00 0.00 100 1014.6
20260902142900 90 71 1.0 5.0 0.00 0.00 0.00 100 1014.7
20260902142400 90 35 4.0 5.0 0.00 0.00 0.00 100 1014.7
20260902141900 90 21 2.0 6.0 0.00 0.00 0.00 100 1014.7
20260902141556 90 85 3.0 6.0 0.00 0.00 0.00 100 1014.7
20260902141400 90 85 3.0 6.0 0.00 0.00 0.00 100 1014.7
20260902140900 90 82 3.0 7.0 0.00 0.00 0.00 100 1014.6
20260902140755 90 43 1.0 7.0 0.00 0.00 0.00 100 1014.7
20260902140400 90 43 1.0 7.0 0.00 0.00 0.00 100 1014.7
20260902140323 90 111 5.0 6.0 0.00 0.00 0.00 100 1014.7
20260902135900 90 111 5.0 6.0 0.00 0.00 0.00 100 1014.7
20260902135400 90 47 4.0 7.0 0.00 0.00 0.00 100 1014.8
20260902134900 90 45 3.0 4.0 0.00 0.00 0.00 100 1014.8
20260902134400 89 177 3.0 7.0 0.00 0.00 0.00 100 1014.9
20260902134314 89 172 3.0 5.0 0.00 0.00 0.00 100 1014.9
20260902133900 89 172 3.0 5.0 0.00 0.00 0.00 100 1014.9
20260902133715 88 119 3.0 6.0 0.00 0.00 0.00 100 1014.8
20260902133400 88 119 3.0 6.0 0.00 0.00 0.00 100 1014.8
20260902132900 88 191 2.0 8.0 0.00 0.00 0.00 100 1014.9
20260902132801 88 61 5.0 6.0 0.00 0.00 0.00 100 1014.9
20260902132400 88 61 5.0 6.0 0.00 0.00 0.00 100 1014.9
20260902132158 88 73 3.0 7.0 0.00 0.00 0.00 100 1014.8
20260902131900 88 73 3.0 7.0 0.00 0.00 0.00 100 1014.8
20260902131625 88 56 3.0 8.0 0.00 0.00 0.00 100 1015.0
20260902131400 88 56 3.0 8.0 0.00 0.00 0.00 100 1015.0